Home   Weather   Oberwart   Past weeks

Flag for Austria Past Weather in Oberwart, Burgenland, Austria — Yesterday and Last 2 Weeks

Now
51 °F

Cool.


Feels Like: 51 °F
Forecast: 42 / 53 °F
Wind: 2 mph from Northeast

Location: Eisenstadt

Current Time: Apr 26, 2017 at 6:25:59 am

Latest Report: Apr 26, 2017 at 5:00 am


Visibility: N/A

Pressure: 29.71 "Hg

Humidity: 80%

Dew Point: 45 °F

Location of OberwartLocation

Past Weather in Oberwart — Graph

°F

Oberwart Temperature Yesterday

Maximum temperature yesterday: 75 °F (at 3:00 pm)
Minimum temperature yesterday: 41 °F (at 6:00 am)
Average temperature yesterday: 58 °F

High & Low Weather Summary for the Past Weeks

 TemperatureHumidityPressure
High75 °F (Apr 25, 3:00 pm)95% (Apr 19, 9:00 pm)30.48 "Hg (Apr 19, 9:00 pm)
Low31 °F (Apr 21, 6:00 am)30% (Apr 25, 2:00 pm)29.65 "Hg (Apr 25, 7:00 pm)
Average48 °F65%30.05 "Hg
* Reported Apr 11 5:00 am — Apr 26 5:00 am, Oberwart, Weather by CustomWeather, © 2017

Note: Actual official high and low records may vary slightly from our data, if they occured in-between our weather recording intervals... More about our weather records

Advertising

Oberwart Weather History for the Previous 24 Hours

Scroll right to see more
 ConditionsComfort  
Time TempWeatherWind HumidityBarometerVisibility
5:00 am
Wed, Apr 26
51 °FCool.2 mph80%29.71 "HgN/A
4:00 am51 °FCool.2 mph82%29.71 "HgN/A
3:00 am51 °FCool.2 mph81%29.74 "HgN/A
2:00 am54 °FPassing clouds.No wind69%29.75 "Hg12 mi
1:00 am53 °FCool.1 mph73%29.77 "HgN/A
12:00 am56 °FCool.6 mph64%29.74 "HgN/A
11:00 pm
Tue, Apr 25
57 °FPassing clouds.6 mph62%29.73 "Hg12 mi
10:00 pm61 °FRefreshingly cool.3 mph51%29.70 "HgN/A
9:00 pm62 °FRefreshingly cool.3 mph50%29.67 "HgN/A
8:00 pm65 °FPassing clouds.2 mph43%29.65 "Hg12 mi
7:00 pm70 °FPassing clouds.6 mph37%29.65 "Hg12 mi
6:00 pm69 °FMild.6 mph43%29.66 "HgN/A
5:00 pm71 °FSprinkles. Scattered clouds.1 mph42%29.67 "Hg12 mi
4:00 pm73 °FMild.5 mph36%29.66 "HgN/A
3:00 pm75 °FMild.5 mph30%29.67 "HgN/A
2:00 pm73 °FScattered clouds.7 mph30%29.70 "Hg12 mi
1:00 pm73 °FMild.8 mph36%29.70 "HgN/A
12:00 pm68 °FMild.1 mph43%29.72 "HgN/A
11:00 am64 °FPassing clouds.2 mph53%29.74 "Hg9 mi
10:00 am56 °FCool.3 mph65%29.77 "HgN/A
9:00 am53 °FCool.3 mph73%29.79 "HgN/A
8:00 am47 °FCool.3 mph84%29.81 "HgN/A
7:00 am43 °FPassing clouds.1 mph91%29.82 "Hg7 mi
6:00 am41 °FSunny.No wind93%29.82 "Hg7 mi
Weather by CustomWeather, © 2017

See weather overviewHow to use our weather pages